Theta_e
319 318 318 319 321 322 323 323 325 324 325 326 327 328 327 326 325 324 324 324 324 325 327 327 326 327 328 328 328 327 326 327
322 319 317 317 319 321 321 322 324 324 324 324 327 327 327 326 326 326 325 325 325 326 327 327 326 327 326 325 327 327 326 327
322 321 318 315 317 319 320 323 322 322 323 326 327 326 326 324 325 325 325 326 326 327 327 327 326 325 325 325 325 325 326 327
323 321 319 316 317 318 321 323 322 321 322 326 327 325 325 325 325 325 326 326 326 327 327 326 327 326 325 325 324 325 326 326
323 322 320 318 318 319 319 322 322 321 322 326 327 325 325 325 325 325 326 326 326 326 327 327 326 326 326 324 325 325 326 326
323 322 320 319 320 320 320 321 322 321 321 325 325 325 324 325 325 325 325 325 326 326 326 328 328 327 326 324 326 327 327 326
323 322 320 319 321 321 321 321 321 320 320 323 324 323 325 324 326 325 323 326 326 325 325 327 327 327 326 325 327 327 327 327
322 322 320 319 320 322 321 320 320 319 320 321 324 322 324 324 325 325 322 324 325 325 325 327 326 326 325 325 325 327 327 327
322 321 320 320 320 321 320 320 319 322 320 320 322 321 324 325 324 324 322 321 324 323 324 325 327 327 327 327 326 326 327 327
322 322 321 320 320 320 319 318 322 321 320 320 320 320 323 322 323 323 322 320 323 322 322 322 324 327 327 327 327 326 326 327
322 322 321 319 319 320 319 320 321 321 319 319 319 319 321 324 323 324 321 320 319 319 320 320 322 325 327 327 327 327 327 327
322 322 320 319 318 320 323 321 321 320 319 319 319 318 319 325 324 324 322 319 318 318 318 319 320 322 323 325 326 326 326 325
322 321 320 319 318 319 320 321 320 318 319 318 318 318 318 322 325 324 323 322 322 320 320 319 319 319 323 324 322 323 323 323
322 322 320 319 319 319 320 320 320 318 317 316 317 317 317 318 323 324 324 324 325 324 324 323 322 321 321 322 322 322 322 320
322 322 320 319 319 319 319 320 319 318 317 316 316 316 317 318 320 323 323 324 325 324 325 325 324 325 324 320 319 318 317 320
323 322 321 320 320 320 320 320 319 318 318 318 316 315 316 318 320 320 322 323 323 325 326 326 325 325 326 326 322 316 310 311
324 323 322 321 320 320 320 320 319 318 317 317 316 316 316 318 319 320 321 322 323 323 324 326 326 325 325 324 323 320 317 312
324 323 323 322 321 321 320 320 320 319 318 318 317 316 317 318 320 320 321 321 321 322 323 324 324 321 320 321 320 320 319 318
324 324 324 323 323 322 320 321 321 320 319 318 318 317 318 319 320 321 320 320 320 320 322 322 322 321 319 319 320 320 320 319
327 327 328 327 325 325 322 321 321 321 320 319 317 318 319 320 320 321 321 320 320 319 320 321 321 320 319 318 317 319 320 319
Wind_Speed
8 8 9 13 20 22 19 15 14 11 10 8 8 7 6 5 7 7 6 7 8 8 7 9 11 10 10 10 10 12 12 11
10 8 8 13 20 22 19 16 14 13 11 10 12 7 6 6 9 9 8 8 10 10 9 11 12 11 9 9 12 15 14 11
13 12 9 10 17 21 19 17 15 15 13 13 12 8 8 9 14 13 11 11 10 11 12 13 12 9 9 10 12 14 15 14
12 12 11 10 17 22 21 19 16 17 15 15 13 11 10 11 14 15 13 12 10 11 10 12 13 10 9 9 8 13 14 15
15 15 14 16 21 28 24 22 18 19 17 16 15 14 12 12 14 13 13 11 12 12 10 9 10 10 11 10 8 11 15 16
14 13 13 20 27 29 26 22 20 20 19 18 17 17 16 14 13 12 10 10 13 14 9 8 11 12 12 11 10 14 16 17
15 23 24 26 30 32 27 22 21 22 22 20 18 17 17 19 16 12 9 11 14 14 10 10 12 14 15 14 15 16 16 18
15 22 23 27 29 33 29 26 23 23 26 24 21 17 19 22 18 14 12 11 12 12 11 10 11 14 15 14 14 19 21 20
22 24 25 30 33 34 26 27 25 28 27 25 22 19 20 20 21 19 16 12 13 11 12 12 11 13 14 14 13 16 18 19
23 22 22 28 34 33 24 25 34 29 27 27 24 22 19 19 20 21 19 17 15 13 12 11 11 12 13 14 14 13 14 16
26 24 22 26 34 34 27 34 33 29 26 28 26 25 21 21 21 23 22 21 19 16 14 12 11 12 13 13 13 12 10 11
24 23 19 22 30 35 39 36 35 33 29 30 29 25 24 24 23 24 25 24 22 20 18 16 14 14 13 15 15 14 14 14
24 22 21 25 30 30 31 36 36 33 32 32 30 28 29 25 25 26 27 25 25 25 23 20 20 18 18 16 18 17 16 15
19 22 21 25 31 31 34 37 40 37 29 30 32 31 29 30 27 24 26 28 28 25 23 25 23 19 20 20 19 17 17 19
16 26 28 29 31 32 37 40 41 40 33 31 33 32 31 30 29 28 23 23 23 26 25 24 25 22 21 21 23 22 20 21
25 21 27 29 30 32 40 41 42 39 38 38 37 34 30 28 30 29 28 24 23 23 25 24 21 24 21 21 24 24 23 25
19 19 17 28 28 29 38 41 41 38 37 37 37 36 35 32 31 29 29 26 26 26 25 25 25 23 22 22 23 28 29 29
14 12 23 23 29 35 42 41 39 35 37 38 39 34 32 32 30 28 25 26 25 28 28 31 27 25 25 26 26 27 28 30
12 21 26 29 22 22 32 43 40 35 32 37 40 33 32 33 30 29 29 27 27 28 34 32 31 31 32 32 30 30 31 32
7 16 17 14 19 20 28 28 31 32 33 34 37 34 30 29 31 30 30 28 29 29 34 34 32 30 31 32 34 35 34 33
Wind_Direction
132 137 156 163 173 183 190 192 192 191 190 190 175 173 170 163 160 155 145 145 149 151 145 139 142 139 143 135 125 115 108 126
153 155 161 167 178 186 192 196 193 182 179 176 157 168 150 132 141 139 142 143 140 139 139 140 142 143 144 133 125 115 109 114
168 169 164 170 175 188 193 192 183 181 175 170 161 150 134 127 135 133 138 141 136 134 131 140 145 146 139 134 129 117 114 116
169 170 164 173 177 188 195 191 188 185 180 176 163 149 139 135 140 142 144 145 139 142 138 138 148 154 156 150 136 128 132 133
173 178 177 178 183 190 196 196 190 188 186 178 170 155 152 147 149 154 156 161 160 153 150 151 153 157 160 163 163 141 140 139
178 175 177 178 188 193 198 198 194 191 188 183 176 166 163 159 157 161 160 166 165 164 159 158 160 154 152 157 153 147 138 141
177 174 176 179 187 193 197 195 196 194 192 189 185 181 178 173 169 169 161 154 166 166 162 152 154 150 152 148 136 142 138 142
166 168 171 174 188 192 193 197 197 199 199 195 188 184 179 181 180 176 167 164 164 167 155 159 154 154 157 160 153 148 140 142
162 160 171 182 187 187 186 195 198 208 203 199 194 189 185 184 185 179 172 164 157 152 148 157 159 166 162 161 161 154 153 152
166 166 178 177 184 181 181 192 209 209 206 201 199 196 191 186 185 184 178 171 166 160 153 148 161 169 168 161 162 165 159 154
172 173 168 174 181 182 181 202 206 207 206 202 201 199 197 192 185 180 180 180 177 174 173 167 162 168 179 182 182 190 192 190
167 163 170 174 182 185 197 196 202 204 205 206 204 198 196 198 197 191 188 186 187 184 187 188 182 182 186 190 194 196 201 194
165 171 176 178 178 189 190 195 196 197 204 208 207 204 201 198 202 201 202 203 199 195 198 198 195 199 201 198 195 197 204 209
168 176 171 171 179 183 191 195 196 193 191 200 207 206 204 206 204 205 212 214 213 218 218 206 208 217 213 209 208 209 207 204
192 175 177 171 177 182 188 193 194 193 189 197 203 205 203 202 206 207 204 217 222 224 224 228 225 221 221 220 219 216 216 215
191 189 172 174 177 184 189 191 193 193 194 200 202 204 204 201 204 208 212 211 213 220 227 228 227 230 234 231 224 222 213 217
181 181 187 171 180 186 189 188 189 189 190 194 199 202 207 208 207 208 211 213 215 223 222 224 226 227 231 233 232 226 223 223
153 179 179 190 185 191 189 188 188 189 194 195 196 197 200 204 206 206 206 211 214 219 223 223 216 217 219 221 224 225 228 233
182 175 186 190 197 192 190 187 186 190 189 192 197 193 199 201 203 204 209 211 215 219 228 230 223 218 222 223 224 228 231 234
79 100 120 162 194 193 194 195 195 188 186 190 190 197 197 197 203 205 207 208 213 217 227 231 230 226 229 230 230 232 235 241